This demonstration page uses our WeatherBlox Daily Observations layout. Learn more.

Hourly Observations for November 30, 2019

Temp ( °F °C ) Dew Point ( °F °C ) Humidity (%) Winds ( mph kmh ) Pressure ( in mb ) Visibility ( mi km ) Precip ( " mm )
12:15 am 00:15 Cloudy with Mist and Fog 36 2 36 2 100 100 SE 17 28 29.58 1002 0.75 1.207005 0 0
12:35 am 00:35 Cloudy with Mist and Fog 36 2.3 36 2.3 100 100 SE 21 33 29.56 1001 1 1.60934 0 0
12:55 am 00:55 Cloudy with Fog 36 2.3 36 2.3 100 100 SE 20 31 29.55 1001 0.5 0.80467 0 0
1:15 am 01:15 Cloudy with Fog 37 2.5 37 2.5 100 100 SE 22 35 29.53 1000 0.5 0.80467 0 0
1:35 am 01:35 Cloudy with Fog 37 2.5 37 2.5 100 100 SE 24 39 29.52 1000 0.25 0.402335 0 0
1:55 am 01:55 Cloudy with Fog 37 2.5 37 2.5 100 100 SSE 20 31 29.5 999 0.25 0.402335 0 0
2:15 am 02:15 Cloudy with Fog 37 2.6 37 2.6 100 100 SE 22 35 29.48 998 0.25 0.402335 0 0
2:35 am 02:35 Cloudy with Fog 37 2.8 37 2.8 100 100 SSE 17 28 29.47 998 0.25 0.402335 0 0
2:55 am 02:55 Cloudy with Fog 37 3 37 3 100 100 SSE 16 26 29.47 998 0.5 0.80467 0 0
3:15 am 03:15 Cloudy with Fog 37 2.9 37 2.9 100 100 SSE 17 28 29.46 997 0.5 0.80467 0 0
3:35 am 03:35 Mostly Cloudy 37 3 37 3 100 100 S 15 24 29.45 997 10 16.0934 0 0
3:55 am 03:55 Clear 38 3.3 38 3.3 100 100 S 15 24 29.42 996 10 16.0934 0 0
4:15 am 04:15 Clear 38 3.6 38 3.6 100 100 S 18 30 29.41 996 10 16.0934 0 0
4:35 am 04:35 Partly Cloudy 39 3.7 35 1.5 86 86 S 16 26 29.39 995 10 16.0934 0 0
4:55 am 04:55 Cloudy 38 3.6 33 0.7 82 82 SSW 16 26 29.39 995 10 16.0934 0 0
5:15 am 05:15 Mostly Cloudy 38 3.3 33 0.5 82 82 SSW 18 30 29.38 995 10 16.0934 0 0
5:35 am 05:35 Partly Cloudy 38 3.3 33 0.6 83 83 SSW 17 28 29.38 995 10 16.0934 0 0
5:55 am 05:55 Partly Cloudy 37 2.8 32 0.1 83 83 SSW 17 28 29.37 994 10 16.0934 0 0
6:15 am 06:15 Mostly Cloudy 37 2.7 32 0 83 83 SSW 14 22 29.36 994 10 16.0934 0 0
6:35 am 06:35 Mostly Cloudy 38 3.5 33 0.4 80 80 SW 15 24 29.34 994 10 16.0934 0 0
6:55 am 06:55 Mostly Cloudy 37 2.6 32 -0.1 83 83 SSW 20 31 29.35 994 10 16.0934 0 0
7:15 am 07:15 Partly Cloudy 36 2 31 -0.7 83 83 SSW 14 22 29.35 994 10 16.0934 0 0
7:35 am 07:35 Partly Cloudy 36 2.1 30 -1.3 78 78 SW 16 26 29.35 994 10 16.0934 0 0
7:55 am 07:55 Partly Cloudy 36 2 29 -1.4 78 78 SW 15 24 29.35 994 10 16.0934 0 0
8:15 am 08:15 Sunny 35 1.7 30 -1.3 81 81 SW 16 26 29.35 994 10 16.0934 0 0
8:35 am 08:35 Sunny 37 2.8 31 -0.8 77 77 SW 15 24 29.33 993 10 16.0934 0 0
8:55 am 08:55 Partly Cloudy 40 4.3 32 -0.2 73 73 WSW 16 26 29.32 993 10 16.0934 0 0
9:15 am 09:15 Mostly Cloudy 40 4.2 31 -0.3 73 73 WSW 26 43 29.31 993 10 16.0934 0 0
9:35 am 09:35 Cloudy 38 3.3 31 -0.5 76 76 WSW 26 43 29.32 993 10 16.0934 0 0
12:15 pm 12:15 Cloudy 36 2 30 -1.1 80 80 W 25 41 29.37 995 10 16.0934 0 0
12:35 pm 12:35 Cloudy 36 2 30 -1.1 80 80 W 24 39 29.38 995 10 16.0934 0 0
12:55 pm 12:55 Cloudy 36 2 30 -1.3 79 79 W 25 41 29.39 995 10 16.0934 0 0
1:15 pm 13:15 Cloudy 35 1.7 29 -1.4 80 80 WNW 26 43 29.4 995 10 16.0934 0 0
1:35 pm 13:35 Cloudy 36 2 30 -1.3 79 79 W 26 43 29.4 996 10 16.0934 0 0
1:55 pm 13:55 Cloudy 35 1.7 29 -1.8 78 78 WNW 29 46 29.42 996 10 16.0934 0 0
2:15 pm 14:15 Cloudy 34 1.2 29 -1.5 82 82 W 25 41 29.43 997 10 16.0934 0 0
2:35 pm 14:35 Cloudy 34 0.9 29 -1.9 82 82 WNW 23 37 29.44 997 10 16.0934 0 0
2:55 pm 14:55 Cloudy 33 0.6 28 -2.1 82 82 WNW 24 39 29.47 998 10 16.0934 0 0
3:15 pm 15:15 Cloudy 33 0.6 27 -3 77 77 WNW 29 46 29.48 998 10 16.0934 0 0
3:35 pm 15:35 Cloudy 32 0.1 26 -3.3 78 78 WNW 30 48 29.5 999 10 16.0934 0 0
3:55 pm 15:55 Cloudy 32 0 26 -3.2 79 79 WNW 32 52 29.5 999 10 16.0934 0 0
4:15 pm 16:15 Cloudy 32 -0.2 26 -3.2 80 80 WNW 35 56 29.52 1000 10 16.0934 0 0
4:35 pm 16:35 Cloudy 31 -0.5 27 -3 83 83 WNW 29 46 29.54 1000 10 16.0934 0 0
4:55 pm 16:55 Cloudy 31 -0.5 26 -3.1 83 83 WNW 29 46 29.54 1000 10 16.0934 0 0
5:15 pm 17:15 Cloudy 31 -0.5 26 -3.6 80 80 WNW 31 50 29.56 1001 10 16.0934 0 0
5:35 pm 17:35 Cloudy 31 -0.7 26 -3.5 82 82 WNW 36 57 29.56 1001 10 16.0934 0 0
5:55 pm 17:55 Cloudy 31 -0.7 26 -3.6 81 81 WNW 33 54 29.57 1001 10 16.0934 0 0
6:15 pm 18:15 Cloudy 30 -1 26 -3.3 85 85 WNW 30 48 29.58 1002 7 11.26538 0 0
6:35 pm 18:35 Cloudy 30 -1 26 -3.3 85 85 WNW 30 48 29.59 1002 7 11.26538 0 0
6:55 pm 18:55 Cloudy 30 -1.1 26 -3.5 84 84 NW 38 61 29.6 1002 10 16.0934 0 0
7:15 pm 19:15 Windy with Snow Likely 30 -1.3 26 -3.5 85 85 WNW 36 57 29.62 1003 5 8.0467 0 0
7:35 pm 19:35 Cloudy 30 -1.3 26 -3.3 86 86 WNW 36 57 29.64 1004 7 11.26538 0 0
7:55 pm 19:55 Cloudy 30 -1.2 26 -3.5 85 85 NW 39 63 29.64 1004 10 16.0934 0 0
8:15 pm 20:15 Cloudy 29 -1.4 25 -3.7 85 85 NW 30 48 29.66 1004 10 16.0934 0 0
8:35 pm 20:35 Cloudy 30 -1.3 25 -4.1 81 81 NW 35 56 29.68 1005 10 16.0934 0 0
8:55 pm 20:55 Cloudy 30 -1.2 25 -4.1 81 81 NW 31 50 29.69 1006 10 16.0934 0 0
9:15 pm 21:15 Cloudy 30 -1.2 24 -4.4 79 79 NW 32 52 29.7 1006 10 16.0934 0 0
9:35 pm 21:35 Cloudy 30 -1.2 24 -4.5 79 79 NW 32 52 29.73 1007 10 16.0934 0 0
9:55 pm 21:55 Cloudy 30 -1.3 24 -4.5 79 79 NW 37 59 29.75 1007 10 16.0934 0 0
10:15 pm 22:15 Cloudy 30 -1.2 24 -4.4 79 79 NW 35 56 29.76 1008 10 16.0934 0 0
10:35 pm 22:35 Cloudy 30 -1.2 24 -4.5 79 79 NW 32 52 29.78 1008 10 16.0934 0 0
10:55 pm 22:55 Cloudy 30 -1 24 -4.3 79 79 NW 33 54 29.78 1009 10 16.0934 0 0
11:15 pm 23:15 Cloudy 30 -1 24 -4.4 78 78 NW 35 56 29.8 1009 10 16.0934 0 0
11:35 pm 23:35 Cloudy 30 -1 24 -4.4 78 78 NW 35 56 29.82 1010 10 16.0934 0 0
11:55 pm 23:55 Cloudy 30 -1 24 -4.3 79 79 NW 29 46 29.83 1010 10 16.0934 0 0

Powered by AerisWeather